HIMAWARI-9              
1 41836U 16064A   19258.85370142 -.00000284  00000-0  00000-0 0  9999
2 41836   0.0141 127.7081 0001271  78.5366 236.3777  1.00268580 10457
H-2A R/B                
1 41837U 16064B   19254.01614404  .00003114  00000-0  64418-3 0  9996
2 41837  22.6186  96.4558 7110328 230.8081  41.5234  2.50694217 25328